Index of /20260429/WXO-DD/model_rdps/10km/00/029
Name Last modified Size Description
Parent Directory -
20260429T00Z_MSC_RDPS_AbsoluteVorticity_IsbL-0250_RLatLon0.09_PT029H.grib2 2026-04-29 02:48 649K
20260429T00Z_MSC_RDPS_AbsoluteVorticity_IsbL-0500_RLatLon0.09_PT029H.grib2 2026-04-29 02:48 697K
20260429T00Z_MSC_RDPS_AbsoluteVorticity_IsbL-0700_RLatLon0.09_PT029H.grib2 2026-04-29 02:48 628K
20260429T00Z_MSC_RDPS_AbsoluteVorticity_IsbL-0850_RLatLon0.09_PT029H.grib2 2026-04-29 02:48 769K
20260429T00Z_MSC_RDPS_AirTemp_AGL-120m_RLatLon0.09_PT029H.grib2 2026-04-29 02:48 381K
20260429T00Z_MSC_RDPS_AirTemp_AGL-2m_RLatLon0.09_PT029H.grib2 2026-04-29 02:48 614K
20260429T00Z_MSC_RDPS_AirTemp_AGL-40m_RLatLon0.09_PT029H.grib2 2026-04-29 02:48 396K
20260429T00Z_MSC_RDPS_AirTemp_AGL-80m_RLatLon0.09_PT029H.grib2 2026-04-29 02:48 387K
20260429T00Z_MSC_RDPS_AirTemp_IsbL-0001_RLatLon0.09_PT029H.grib2 2026-04-29 02:48 297K
20260429T00Z_MSC_RDPS_AirTemp_IsbL-0005_RLatLon0.09_PT029H.grib2 2026-04-29 02:48 292K
20260429T00Z_MSC_RDPS_AirTemp_IsbL-0010_RLatLon0.09_PT029H.grib2 2026-04-29 02:48 304K
20260429T00Z_MSC_RDPS_AirTemp_IsbL-0020_RLatLon0.09_PT029H.grib2 2026-04-29 02:48 315K
20260429T00Z_MSC_RDPS_AirTemp_IsbL-0030_RLatLon0.09_PT029H.grib2 2026-04-29 02:48 339K
20260429T00Z_MSC_RDPS_AirTemp_IsbL-0050_RLatLon0.09_PT029H.grib2 2026-04-29 02:48 314K
20260429T00Z_MSC_RDPS_AirTemp_IsbL-0100_RLatLon0.09_PT029H.grib2 2026-04-29 02:48 431K
20260429T00Z_MSC_RDPS_AirTemp_IsbL-0150_RLatLon0.09_PT029H.grib2 2026-04-29 02:48 430K
20260429T00Z_MSC_RDPS_AirTemp_IsbL-0175_RLatLon0.09_PT029H.grib2 2026-04-29 02:48 419K
20260429T00Z_MSC_RDPS_AirTemp_IsbL-0200_RLatLon0.09_PT029H.grib2 2026-04-29 02:48 422K
20260429T00Z_MSC_RDPS_AirTemp_IsbL-0225_RLatLon0.09_PT029H.grib2 2026-04-29 02:48 423K
20260429T00Z_MSC_RDPS_AirTemp_IsbL-0250_RLatLon0.09_PT029H.grib2 2026-04-29 02:48 435K
20260429T00Z_MSC_RDPS_AirTemp_IsbL-0275_RLatLon0.09_PT029H.grib2 2026-04-29 02:48 413K
20260429T00Z_MSC_RDPS_AirTemp_IsbL-0300_RLatLon0.09_PT029H.grib2 2026-04-29 02:48 417K
20260429T00Z_MSC_RDPS_AirTemp_IsbL-0350_RLatLon0.09_PT029H.grib2 2026-04-29 02:48 429K
20260429T00Z_MSC_RDPS_AirTemp_IsbL-0400_RLatLon0.09_PT029H.grib2 2026-04-29 02:48 429K
20260429T00Z_MSC_RDPS_AirTemp_IsbL-0450_RLatLon0.09_PT029H.grib2 2026-04-29 02:48 437K
20260429T00Z_MSC_RDPS_AirTemp_IsbL-0500_RLatLon0.09_PT029H.grib2 2026-04-29 02:48 412K
20260429T00Z_MSC_RDPS_AirTemp_IsbL-0550_RLatLon0.09_PT029H.grib2 2026-04-29 02:48 429K
20260429T00Z_MSC_RDPS_AirTemp_IsbL-0600_RLatLon0.09_PT029H.grib2 2026-04-29 02:48 449K
20260429T00Z_MSC_RDPS_AirTemp_IsbL-0650_RLatLon0.09_PT029H.grib2 2026-04-29 02:48 465K
20260429T00Z_MSC_RDPS_AirTemp_IsbL-0700_RLatLon0.09_PT029H.grib2 2026-04-29 02:48 379K
20260429T00Z_MSC_RDPS_AirTemp_IsbL-0750_RLatLon0.09_PT029H.grib2 2026-04-29 02:48 409K
20260429T00Z_MSC_RDPS_AirTemp_IsbL-0800_RLatLon0.09_PT029H.grib2 2026-04-29 02:48 447K
20260429T00Z_MSC_RDPS_AirTemp_IsbL-0850_RLatLon0.09_PT029H.grib2 2026-04-29 02:48 492K
20260429T00Z_MSC_RDPS_AirTemp_IsbL-0875_RLatLon0.09_PT029H.grib2 2026-04-29 02:48 512K
20260429T00Z_MSC_RDPS_AirTemp_IsbL-0900_RLatLon0.09_PT029H.grib2 2026-04-29 02:48 521K
20260429T00Z_MSC_RDPS_AirTemp_IsbL-0925_RLatLon0.09_PT029H.grib2 2026-04-29 02:48 517K
20260429T00Z_MSC_RDPS_AirTemp_IsbL-0950_RLatLon0.09_PT029H.grib2 2026-04-29 02:48 518K
20260429T00Z_MSC_RDPS_AirTemp_IsbL-0970_RLatLon0.09_PT029H.grib2 2026-04-29 02:48 510K
20260429T00Z_MSC_RDPS_AirTemp_IsbL-0985_RLatLon0.09_PT029H.grib2 2026-04-29 02:48 495K
20260429T00Z_MSC_RDPS_AirTemp_IsbL-1000_RLatLon0.09_PT029H.grib2 2026-04-29 02:48 477K
20260429T00Z_MSC_RDPS_AirTemp_IsbL-1015_RLatLon0.09_PT029H.grib2 2026-04-29 02:48 475K
20260429T00Z_MSC_RDPS_Albedo_Sfc_RLatLon0.09_PT029H.grib2 2026-04-29 02:48 158K
20260429T00Z_MSC_RDPS_CAPE_Sfc_RLatLon0.09_PT029H.grib2 2026-04-29 02:48 1.6M
20260429T00Z_MSC_RDPS_CIN_Sfc_RLatLon0.09_PT029H.grib2 2026-04-29 02:48 1.1M
20260429T00Z_MSC_RDPS_CloudWater_EAtm_RLatLon0.09_PT029H.grib2 2026-04-29 02:48 219K
20260429T00Z_MSC_RDPS_ConvectivePrecip-Accum_Sfc_RLatLon0.09_PT029H.grib2 2026-04-29 02:48 850K
20260429T00Z_MSC_RDPS_DewPointDepression_AGL-2m_RLatLon0.09_PT029H.grib2 2026-04-29 02:48 388K
20260429T00Z_MSC_RDPS_DewPointDepression_IsbL-0001_RLatLon0.09_PT029H.grib2 2026-04-29 02:48 193
20260429T00Z_MSC_RDPS_DewPointDepression_IsbL-0005_RLatLon0.09_PT029H.grib2 2026-04-29 02:48 193
20260429T00Z_MSC_RDPS_DewPointDepression_IsbL-0010_RLatLon0.09_PT029H.grib2 2026-04-29 02:48 193
20260429T00Z_MSC_RDPS_DewPointDepression_IsbL-0020_RLatLon0.09_PT029H.grib2 2026-04-29 02:48 193
20260429T00Z_MSC_RDPS_DewPointDepression_IsbL-0030_RLatLon0.09_PT029H.grib2 2026-04-29 02:48 193
20260429T00Z_MSC_RDPS_DewPointDepression_IsbL-0050_RLatLon0.09_PT029H.grib2 2026-04-29 02:48 82K
20260429T00Z_MSC_RDPS_DewPointDepression_IsbL-0100_RLatLon0.09_PT029H.grib2 2026-04-29 02:48 133K
20260429T00Z_MSC_RDPS_DewPointDepression_IsbL-0150_RLatLon0.09_PT029H.grib2 2026-04-29 02:48 152K
20260429T00Z_MSC_RDPS_DewPointDepression_IsbL-0175_RLatLon0.09_PT029H.grib2 2026-04-29 02:48 181K
20260429T00Z_MSC_RDPS_DewPointDepression_IsbL-0200_RLatLon0.09_PT029H.grib2 2026-04-29 02:48 218K
20260429T00Z_MSC_RDPS_DewPointDepression_IsbL-0225_RLatLon0.09_PT029H.grib2 2026-04-29 02:48 268K
20260429T00Z_MSC_RDPS_DewPointDepression_IsbL-0250_RLatLon0.09_PT029H.grib2 2026-04-29 02:48 308K
20260429T00Z_MSC_RDPS_DewPointDepression_IsbL-0275_RLatLon0.09_PT029H.grib2 2026-04-29 02:48 313K
20260429T00Z_MSC_RDPS_DewPointDepression_IsbL-0300_RLatLon0.09_PT029H.grib2 2026-04-29 02:48 333K
20260429T00Z_MSC_RDPS_DewPointDepression_IsbL-0350_RLatLon0.09_PT029H.grib2 2026-04-29 02:48 334K
20260429T00Z_MSC_RDPS_DewPointDepression_IsbL-0400_RLatLon0.09_PT029H.grib2 2026-04-29 02:48 341K
20260429T00Z_MSC_RDPS_DewPointDepression_IsbL-0450_RLatLon0.09_PT029H.grib2 2026-04-29 02:48 347K
20260429T00Z_MSC_RDPS_DewPointDepression_IsbL-0500_RLatLon0.09_PT029H.grib2 2026-04-29 02:48 353K
20260429T00Z_MSC_RDPS_DewPointDepression_IsbL-0550_RLatLon0.09_PT029H.grib2 2026-04-29 02:48 367K
20260429T00Z_MSC_RDPS_DewPointDepression_IsbL-0600_RLatLon0.09_PT029H.grib2 2026-04-29 02:48 380K
20260429T00Z_MSC_RDPS_DewPointDepression_IsbL-0650_RLatLon0.09_PT029H.grib2 2026-04-29 02:48 388K
20260429T00Z_MSC_RDPS_DewPointDepression_IsbL-0700_RLatLon0.09_PT029H.grib2 2026-04-29 02:48 397K
20260429T00Z_MSC_RDPS_DewPointDepression_IsbL-0750_RLatLon0.09_PT029H.grib2 2026-04-29 02:48 414K
20260429T00Z_MSC_RDPS_DewPointDepression_IsbL-0800_RLatLon0.09_PT029H.grib2 2026-04-29 02:48 437K
20260429T00Z_MSC_RDPS_DewPointDepression_IsbL-0850_RLatLon0.09_PT029H.grib2 2026-04-29 02:48 461K
20260429T00Z_MSC_RDPS_DewPointDepression_IsbL-0875_RLatLon0.09_PT029H.grib2 2026-04-29 02:48 467K
20260429T00Z_MSC_RDPS_DewPointDepression_IsbL-0900_RLatLon0.09_PT029H.grib2 2026-04-29 02:48 460K
20260429T00Z_MSC_RDPS_DewPointDepression_IsbL-0925_RLatLon0.09_PT029H.grib2 2026-04-29 02:48 445K
20260429T00Z_MSC_RDPS_DewPointDepression_IsbL-0950_RLatLon0.09_PT029H.grib2 2026-04-29 02:48 439K
20260429T00Z_MSC_RDPS_DewPointDepression_IsbL-0970_RLatLon0.09_PT029H.grib2 2026-04-29 02:48 429K
20260429T00Z_MSC_RDPS_DewPointDepression_IsbL-0985_RLatLon0.09_PT029H.grib2 2026-04-29 02:48 420K
20260429T00Z_MSC_RDPS_DewPointDepression_IsbL-1000_RLatLon0.09_PT029H.grib2 2026-04-29 02:48 412K
20260429T00Z_MSC_RDPS_DewPointDepression_IsbL-1015_RLatLon0.09_PT029H.grib2 2026-04-29 02:48 402K
20260429T00Z_MSC_RDPS_DewPoint_AGL-2m_RLatLon0.09_PT029H.grib2 2026-04-29 02:48 299K
20260429T00Z_MSC_RDPS_DownwardLongwaveRadiationFlux-Accum_Sfc_RLatLon0.09_PT029H.grib2 2026-04-29 02:48 465K
20260429T00Z_MSC_RDPS_DownwardShortwaveRadiationFlux-Accum_NTAtm_RLatLon0.09_PT029H.grib2 2026-04-29 02:48 102K
20260429T00Z_MSC_RDPS_DownwardShortwaveRadiationFlux-Accum_Sfc_RLatLon0.09_PT029H.grib2 2026-04-29 02:48 646K
20260429T00Z_MSC_RDPS_FreezingRain-Accum1h_Sfc_RLatLon0.09_PT029H.grib2 2026-04-29 02:48 23K
20260429T00Z_MSC_RDPS_FreezingRain-Accum_Sfc_RLatLon0.09_PT029H.grib2 2026-04-29 02:48 127K
20260429T00Z_MSC_RDPS_GeopotentialHeight_IsbL-0001_RLatLon0.09_PT029H.grib2 2026-04-29 02:48 235K
20260429T00Z_MSC_RDPS_GeopotentialHeight_IsbL-0005_RLatLon0.09_PT029H.grib2 2026-04-29 02:48 333K
20260429T00Z_MSC_RDPS_GeopotentialHeight_IsbL-0010_RLatLon0.09_PT029H.grib2 2026-04-29 02:48 301K
20260429T00Z_MSC_RDPS_GeopotentialHeight_IsbL-0020_RLatLon0.09_PT029H.grib2 2026-04-29 02:48 300K
20260429T00Z_MSC_RDPS_GeopotentialHeight_IsbL-0030_RLatLon0.09_PT029H.grib2 2026-04-29 02:48 302K
20260429T00Z_MSC_RDPS_GeopotentialHeight_IsbL-0050_RLatLon0.09_PT029H.grib2 2026-04-29 02:48 337K
20260429T00Z_MSC_RDPS_GeopotentialHeight_IsbL-0100_RLatLon0.09_PT029H.grib2 2026-04-29 02:48 283K
20260429T00Z_MSC_RDPS_GeopotentialHeight_IsbL-0150_RLatLon0.09_PT029H.grib2 2026-04-29 02:48 228K
20260429T00Z_MSC_RDPS_GeopotentialHeight_IsbL-0175_RLatLon0.09_PT029H.grib2 2026-04-29 02:48 231K
20260429T00Z_MSC_RDPS_GeopotentialHeight_IsbL-0200_RLatLon0.09_PT029H.grib2 2026-04-29 02:48 264K
20260429T00Z_MSC_RDPS_GeopotentialHeight_IsbL-0225_RLatLon0.09_PT029H.grib2 2026-04-29 02:48 265K
20260429T00Z_MSC_RDPS_GeopotentialHeight_IsbL-0250_RLatLon0.09_PT029H.grib2 2026-04-29 02:48 266K
20260429T00Z_MSC_RDPS_GeopotentialHeight_IsbL-0275_RLatLon0.09_PT029H.grib2 2026-04-29 02:48 265K
20260429T00Z_MSC_RDPS_GeopotentialHeight_IsbL-0300_RLatLon0.09_PT029H.grib2 2026-04-29 02:48 265K
20260429T00Z_MSC_RDPS_GeopotentialHeight_IsbL-0350_RLatLon0.09_PT029H.grib2 2026-04-29 02:48 231K
20260429T00Z_MSC_RDPS_GeopotentialHeight_IsbL-0400_RLatLon0.09_PT029H.grib2 2026-04-29 02:48 228K
20260429T00Z_MSC_RDPS_GeopotentialHeight_IsbL-0450_RLatLon0.09_PT029H.grib2 2026-04-29 02:48 296K
20260429T00Z_MSC_RDPS_GeopotentialHeight_IsbL-0500_RLatLon0.09_PT029H.grib2 2026-04-29 02:48 291K
20260429T00Z_MSC_RDPS_GeopotentialHeight_IsbL-0550_RLatLon0.09_PT029H.grib2 2026-04-29 02:48 287K
20260429T00Z_MSC_RDPS_GeopotentialHeight_IsbL-0600_RLatLon0.09_PT029H.grib2 2026-04-29 02:48 284K
20260429T00Z_MSC_RDPS_GeopotentialHeight_IsbL-0650_RLatLon0.09_PT029H.grib2 2026-04-29 02:48 253K
20260429T00Z_MSC_RDPS_GeopotentialHeight_IsbL-0700_RLatLon0.09_PT029H.grib2 2026-04-29 02:48 333K
20260429T00Z_MSC_RDPS_GeopotentialHeight_IsbL-0750_RLatLon0.09_PT029H.grib2 2026-04-29 02:48 335K
20260429T00Z_MSC_RDPS_GeopotentialHeight_IsbL-0800_RLatLon0.09_PT029H.grib2 2026-04-29 02:48 373K
20260429T00Z_MSC_RDPS_GeopotentialHeight_IsbL-0850_RLatLon0.09_PT029H.grib2 2026-04-29 02:48 382K
20260429T00Z_MSC_RDPS_GeopotentialHeight_IsbL-0875_RLatLon0.09_PT029H.grib2 2026-04-29 02:48 386K
20260429T00Z_MSC_RDPS_GeopotentialHeight_IsbL-0900_RLatLon0.09_PT029H.grib2 2026-04-29 02:48 391K
20260429T00Z_MSC_RDPS_GeopotentialHeight_IsbL-0925_RLatLon0.09_PT029H.grib2 2026-04-29 02:48 394K
20260429T00Z_MSC_RDPS_GeopotentialHeight_IsbL-0950_RLatLon0.09_PT029H.grib2 2026-04-29 02:48 398K
20260429T00Z_MSC_RDPS_GeopotentialHeight_IsbL-0970_RLatLon0.09_PT029H.grib2 2026-04-29 02:48 403K
20260429T00Z_MSC_RDPS_GeopotentialHeight_IsbL-0985_RLatLon0.09_PT029H.grib2 2026-04-29 02:48 411K
20260429T00Z_MSC_RDPS_GeopotentialHeight_IsbL-1000_RLatLon0.09_PT029H.grib2 2026-04-29 02:48 422K
20260429T00Z_MSC_RDPS_GeopotentialHeight_IsbL-1015_RLatLon0.09_PT029H.grib2 2026-04-29 02:48 436K
20260429T00Z_MSC_RDPS_Humidex_Sfc_RLatLon0.09_PT029H.grib2 2026-04-29 02:48 2.4M
20260429T00Z_MSC_RDPS_IcePellets-Accum1h_Sfc_RLatLon0.09_PT029H.grib2 2026-04-29 02:48 2.3K
20260429T00Z_MSC_RDPS_IcePellets-Accum_Sfc_RLatLon0.09_PT029H.grib2 2026-04-29 02:48 18K
20260429T00Z_MSC_RDPS_KIndex_Sfc_RLatLon0.09_PT029H.grib2 2026-04-29 02:48 2.5M
20260429T00Z_MSC_RDPS_LatentHeatNetFlux_Sfc_RLatLon0.09_PT029H.grib2 2026-04-29 02:48 391K
20260429T00Z_MSC_RDPS_LiftedIndex-MU-VT_IsbL-0500_RLatLon0.09_PT029H.grib2 2026-04-29 02:48 2.4M
20260429T00Z_MSC_RDPS_NetLongwaveRadiationFlux-Accum_Sfc_RLatLon0.09_PT029H.grib2 2026-04-29 02:48 598K
20260429T00Z_MSC_RDPS_NetShortwaveRadiationFlux-Accum_Sfc_RLatLon0.09_PT029H.grib2 2026-04-29 02:48 646K
20260429T00Z_MSC_RDPS_PlanetaryBoundaryLayerHeight_Sfc_RLatLon0.09_PT029H.grib2 2026-04-29 02:48 1.1M
20260429T00Z_MSC_RDPS_Precip-Accum1h_Sfc_RLatLon0.09_PT029H.grib2 2026-04-29 02:48 1.1M
20260429T00Z_MSC_RDPS_Precip-Accum_Sfc_RLatLon0.09_PT029H.grib2 2026-04-29 02:48 1.8M
20260429T00Z_MSC_RDPS_PrecipRate_Sfc_RLatLon0.09_PT029H.grib2 2026-04-29 02:48 178K
20260429T00Z_MSC_RDPS_PrecipType-Instant_Sfc_RLatLon0.09_PT029H.grib2 2026-04-29 02:48 539K
20260429T00Z_MSC_RDPS_Pressure-Trend3h_Sfc_RLatLon0.09_PT029H.grib2 2026-04-29 02:48 1.2M
20260429T00Z_MSC_RDPS_Pressure_MSL_RLatLon0.09_PT029H.grib2 2026-04-29 02:48 289K
20260429T00Z_MSC_RDPS_Pressure_PVU-1.5_RLatLon0.09_PT029H.grib2 2026-04-29 02:48 2.5M
20260429T00Z_MSC_RDPS_Pressure_PVU-1_RLatLon0.09_PT029H.grib2 2026-04-29 02:48 2.4M
20260429T00Z_MSC_RDPS_Pressure_PVU-2_RLatLon0.09_PT029H.grib2 2026-04-29 02:48 2.4M
20260429T00Z_MSC_RDPS_Pressure_Sfc_RLatLon0.09_PT029H.grib2 2026-04-29 02:48 499K
20260429T00Z_MSC_RDPS_RadiativeTemp_Sfc_RLatLon0.09_PT029H.grib2 2026-04-29 02:48 296K
20260429T00Z_MSC_RDPS_Rain-Accum1h_Sfc_RLatLon0.09_PT029H.grib2 2026-04-29 02:48 551K
20260429T00Z_MSC_RDPS_Rain-Accum_Sfc_RLatLon0.09_PT029H.grib2 2026-04-29 02:48 1.4M
20260429T00Z_MSC_RDPS_RelativeHumidity_AGL-2m_RLatLon0.09_PT029H.grib2 2026-04-29 02:48 1.0M
20260429T00Z_MSC_RDPS_RelativeHumidity_IsbL-0010_RLatLon0.09_PT029H.grib2 2026-04-29 02:48 637K
20260429T00Z_MSC_RDPS_RelativeHumidity_IsbL-0020_RLatLon0.09_PT029H.grib2 2026-04-29 02:48 688K
20260429T00Z_MSC_RDPS_RelativeHumidity_IsbL-0030_RLatLon0.09_PT029H.grib2 2026-04-29 02:48 607K
20260429T00Z_MSC_RDPS_RelativeHumidity_IsbL-0050_RLatLon0.09_PT029H.grib2 2026-04-29 02:48 370K
20260429T00Z_MSC_RDPS_RelativeHumidity_IsbL-0100_RLatLon0.09_PT029H.grib2 2026-04-29 02:48 287K
20260429T00Z_MSC_RDPS_RelativeHumidity_IsbL-0150_RLatLon0.09_PT029H.grib2 2026-04-29 02:48 414K
20260429T00Z_MSC_RDPS_RelativeHumidity_IsbL-0175_RLatLon0.09_PT029H.grib2 2026-04-29 02:48 484K
20260429T00Z_MSC_RDPS_RelativeHumidity_IsbL-0200_RLatLon0.09_PT029H.grib2 2026-04-29 02:48 559K
20260429T00Z_MSC_RDPS_RelativeHumidity_IsbL-0225_RLatLon0.09_PT029H.grib2 2026-04-29 02:48 632K
20260429T00Z_MSC_RDPS_RelativeHumidity_IsbL-0250_RLatLon0.09_PT029H.grib2 2026-04-29 02:48 709K
20260429T00Z_MSC_RDPS_RelativeHumidity_IsbL-0275_RLatLon0.09_PT029H.grib2 2026-04-29 02:48 735K
20260429T00Z_MSC_RDPS_RelativeHumidity_IsbL-0300_RLatLon0.09_PT029H.grib2 2026-04-29 02:48 780K
20260429T00Z_MSC_RDPS_RelativeHumidity_IsbL-0350_RLatLon0.09_PT029H.grib2 2026-04-29 02:48 792K
20260429T00Z_MSC_RDPS_RelativeHumidity_IsbL-0400_RLatLon0.09_PT029H.grib2 2026-04-29 02:48 800K
20260429T00Z_MSC_RDPS_RelativeHumidity_IsbL-0450_RLatLon0.09_PT029H.grib2 2026-04-29 02:48 805K
20260429T00Z_MSC_RDPS_RelativeHumidity_IsbL-0500_RLatLon0.09_PT029H.grib2 2026-04-29 02:48 810K
20260429T00Z_MSC_RDPS_RelativeHumidity_IsbL-0550_RLatLon0.09_PT029H.grib2 2026-04-29 02:48 837K
20260429T00Z_MSC_RDPS_RelativeHumidity_IsbL-0600_RLatLon0.09_PT029H.grib2 2026-04-29 02:48 852K
20260429T00Z_MSC_RDPS_RelativeHumidity_IsbL-0650_RLatLon0.09_PT029H.grib2 2026-04-29 02:48 864K
20260429T00Z_MSC_RDPS_RelativeHumidity_IsbL-0700_RLatLon0.09_PT029H.grib2 2026-04-29 02:48 885K
20260429T00Z_MSC_RDPS_RelativeHumidity_IsbL-0750_RLatLon0.09_PT029H.grib2 2026-04-29 02:48 931K
20260429T00Z_MSC_RDPS_RelativeHumidity_IsbL-0800_RLatLon0.09_PT029H.grib2 2026-04-29 02:48 1.0M
20260429T00Z_MSC_RDPS_RelativeHumidity_IsbL-0850_RLatLon0.09_PT029H.grib2 2026-04-29 02:48 1.0M
20260429T00Z_MSC_RDPS_RelativeHumidity_IsbL-0875_RLatLon0.09_PT029H.grib2 2026-04-29 02:48 1.0M
20260429T00Z_MSC_RDPS_RelativeHumidity_IsbL-0900_RLatLon0.09_PT029H.grib2 2026-04-29 02:48 1.1M
20260429T00Z_MSC_RDPS_RelativeHumidity_IsbL-0925_RLatLon0.09_PT029H.grib2 2026-04-29 02:48 1.0M
20260429T00Z_MSC_RDPS_RelativeHumidity_IsbL-0950_RLatLon0.09_PT029H.grib2 2026-04-29 02:48 1.1M
20260429T00Z_MSC_RDPS_RelativeHumidity_IsbL-0970_RLatLon0.09_PT029H.grib2 2026-04-29 02:48 1.0M
20260429T00Z_MSC_RDPS_RelativeHumidity_IsbL-0985_RLatLon0.09_PT029H.grib2 2026-04-29 02:48 1.0M
20260429T00Z_MSC_RDPS_RelativeHumidity_IsbL-1000_RLatLon0.09_PT029H.grib2 2026-04-29 02:48 1.0M
20260429T00Z_MSC_RDPS_RelativeHumidity_IsbL-1015_RLatLon0.09_PT029H.grib2 2026-04-29 02:48 1.0M
20260429T00Z_MSC_RDPS_Runoff-Accum_Sfc_RLatLon0.09_PT029H.grib2 2026-04-29 02:48 55K
20260429T00Z_MSC_RDPS_SWEATIndex_Sfc_RLatLon0.09_PT029H.grib2 2026-04-29 02:48 2.4M
20260429T00Z_MSC_RDPS_SeeingIndex_EAtm_RLatLon0.09_PT029H.grib2 2026-04-29 02:48 1.0M
20260429T00Z_MSC_RDPS_SensibleHeatNetFlux_Sfc_RLatLon0.09_PT029H.grib2 2026-04-29 02:48 281K
20260429T00Z_MSC_RDPS_ShowalterIndex_IsbL-0500_RLatLon0.09_PT029H.grib2 2026-04-29 02:48 2.6M
20260429T00Z_MSC_RDPS_SkyTransparencyIndex_EAtm_RLatLon0.09_PT029H.grib2 2026-04-29 02:48 666K
20260429T00Z_MSC_RDPS_Snow-Accum1h_Sfc_RLatLon0.09_PT029H.grib2 2026-04-29 02:48 459K
20260429T00Z_MSC_RDPS_Snow-Accum_Sfc_RLatLon0.09_PT029H.grib2 2026-04-29 02:48 733K
20260429T00Z_MSC_RDPS_SnowDensity_Sfc_RLatLon0.09_PT029H.grib2 2026-04-29 02:48 179K
20260429T00Z_MSC_RDPS_SnowDepth_Sfc_RLatLon0.09_PT029H.grib2 2026-04-29 02:48 682K
20260429T00Z_MSC_RDPS_SoilTemp_DBS-0to10cm_RLatLon0.09_PT029H.grib2 2026-04-29 02:48 227K
20260429T00Z_MSC_RDPS_SoilTemp_Sfc_RLatLon0.09_PT029H.grib2 2026-04-29 02:48 261K
20260429T00Z_MSC_RDPS_SoilVolumetricIceContent_Sfc_RLatLon0.09_PT029H.grib2 2026-04-29 02:48 164K
20260429T00Z_MSC_RDPS_SoilVolumetricWaterContent_DBS-0to10cm_RLatLon0.09_PT029H.grib2 2026-04-29 02:48 266K
20260429T00Z_MSC_RDPS_SoilVolumetricWaterContent_DBS-0to1cm_RLatLon0.09_PT029H.grib2 2026-04-29 02:48 334K
20260429T00Z_MSC_RDPS_SpecificHumidity_AGL-120m_RLatLon0.09_PT029H.grib2 2026-04-29 02:48 476K
20260429T00Z_MSC_RDPS_SpecificHumidity_AGL-2m_RLatLon0.09_PT029H.grib2 2026-04-29 02:48 636K
20260429T00Z_MSC_RDPS_SpecificHumidity_AGL-40m_RLatLon0.09_PT029H.grib2 2026-04-29 02:48 480K
20260429T00Z_MSC_RDPS_SpecificHumidity_AGL-80m_RLatLon0.09_PT029H.grib2 2026-04-29 02:48 477K
20260429T00Z_MSC_RDPS_SpecificHumidity_IsbL-0001_RLatLon0.09_PT029H.grib2 2026-04-29 02:48 342K
20260429T00Z_MSC_RDPS_SpecificHumidity_IsbL-0005_RLatLon0.09_PT029H.grib2 2026-04-29 02:48 359K
20260429T00Z_MSC_RDPS_SpecificHumidity_IsbL-0010_RLatLon0.09_PT029H.grib2 2026-04-29 02:48 396K
20260429T00Z_MSC_RDPS_SpecificHumidity_IsbL-0020_RLatLon0.09_PT029H.grib2 2026-04-29 02:48 389K
20260429T00Z_MSC_RDPS_SpecificHumidity_IsbL-0030_RLatLon0.09_PT029H.grib2 2026-04-29 02:48 373K
20260429T00Z_MSC_RDPS_SpecificHumidity_IsbL-0050_RLatLon0.09_PT029H.grib2 2026-04-29 02:48 461K
20260429T00Z_MSC_RDPS_SpecificHumidity_IsbL-0100_RLatLon0.09_PT029H.grib2 2026-04-29 02:48 355K
20260429T00Z_MSC_RDPS_SpecificHumidity_IsbL-0150_RLatLon0.09_PT029H.grib2 2026-04-29 02:48 482K
20260429T00Z_MSC_RDPS_SpecificHumidity_IsbL-0175_RLatLon0.09_PT029H.grib2 2026-04-29 02:48 544K
20260429T00Z_MSC_RDPS_SpecificHumidity_IsbL-0200_RLatLon0.09_PT029H.grib2 2026-04-29 02:48 454K
20260429T00Z_MSC_RDPS_SpecificHumidity_IsbL-0225_RLatLon0.09_PT029H.grib2 2026-04-29 02:48 569K
20260429T00Z_MSC_RDPS_SpecificHumidity_IsbL-0250_RLatLon0.09_PT029H.grib2 2026-04-29 02:48 572K
20260429T00Z_MSC_RDPS_SpecificHumidity_IsbL-0275_RLatLon0.09_PT029H.grib2 2026-04-29 02:48 484K
20260429T00Z_MSC_RDPS_SpecificHumidity_IsbL-0300_RLatLon0.09_PT029H.grib2 2026-04-29 02:48 585K
20260429T00Z_MSC_RDPS_SpecificHumidity_IsbL-0350_RLatLon0.09_PT029H.grib2 2026-04-29 02:48 548K
20260429T00Z_MSC_RDPS_SpecificHumidity_IsbL-0400_RLatLon0.09_PT029H.grib2 2026-04-29 02:48 525K
20260429T00Z_MSC_RDPS_SpecificHumidity_IsbL-0450_RLatLon0.09_PT029H.grib2 2026-04-29 02:48 577K
20260429T00Z_MSC_RDPS_SpecificHumidity_IsbL-0500_RLatLon0.09_PT029H.grib2 2026-04-29 02:48 513K
20260429T00Z_MSC_RDPS_SpecificHumidity_IsbL-0550_RLatLon0.09_PT029H.grib2 2026-04-29 02:48 588K
20260429T00Z_MSC_RDPS_SpecificHumidity_IsbL-0600_RLatLon0.09_PT029H.grib2 2026-04-29 02:48 644K
20260429T00Z_MSC_RDPS_SpecificHumidity_IsbL-0650_RLatLon0.09_PT029H.grib2 2026-04-29 02:48 561K
20260429T00Z_MSC_RDPS_SpecificHumidity_IsbL-0700_RLatLon0.09_PT029H.grib2 2026-04-29 02:48 602K
20260429T00Z_MSC_RDPS_SpecificHumidity_IsbL-0750_RLatLon0.09_PT029H.grib2 2026-04-29 02:48 654K
20260429T00Z_MSC_RDPS_SpecificHumidity_IsbL-0800_RLatLon0.09_PT029H.grib2 2026-04-29 02:48 722K
20260429T00Z_MSC_RDPS_SpecificHumidity_IsbL-0850_RLatLon0.09_PT029H.grib2 2026-04-29 02:48 787K
20260429T00Z_MSC_RDPS_SpecificHumidity_IsbL-0875_RLatLon0.09_PT029H.grib2 2026-04-29 02:48 815K
20260429T00Z_MSC_RDPS_SpecificHumidity_IsbL-0900_RLatLon0.09_PT029H.grib2 2026-04-29 02:48 831K
20260429T00Z_MSC_RDPS_SpecificHumidity_IsbL-0925_RLatLon0.09_PT029H.grib2 2026-04-29 02:48 830K
20260429T00Z_MSC_RDPS_SpecificHumidity_IsbL-0950_RLatLon0.09_PT029H.grib2 2026-04-29 02:48 832K
20260429T00Z_MSC_RDPS_SpecificHumidity_IsbL-0970_RLatLon0.09_PT029H.grib2 2026-04-29 02:48 819K
20260429T00Z_MSC_RDPS_SpecificHumidity_IsbL-0985_RLatLon0.09_PT029H.grib2 2026-04-29 02:48 666K
20260429T00Z_MSC_RDPS_SpecificHumidity_IsbL-1000_RLatLon0.09_PT029H.grib2 2026-04-29 02:48 655K
20260429T00Z_MSC_RDPS_SpecificHumidity_IsbL-1015_RLatLon0.09_PT029H.grib2 2026-04-29 02:48 646K
20260429T00Z_MSC_RDPS_SpecificHumidity_Sfc_RLatLon0.09_PT029H.grib2 2026-04-29 02:48 291K
20260429T00Z_MSC_RDPS_StormRelativeHelicity_EtaL-10000_RLatLon0.09_PT029H.grib2 2026-04-29 02:48 1.1M
20260429T00Z_MSC_RDPS_StormSeverityIndex_EtaL-10000_RLatLon0.09_PT029H.grib2 2026-04-29 02:48 1.2M
20260429T00Z_MSC_RDPS_Thickness_IsbL-0850to0700_RLatLon0.09_PT029H.grib2 2026-04-29 02:48 178K
20260429T00Z_MSC_RDPS_Thickness_IsbL-1000to0500_RLatLon0.09_PT029H.grib2 2026-04-29 02:48 199K
20260429T00Z_MSC_RDPS_Thickness_IsbL-1000to0850_RLatLon0.09_PT029H.grib2 2026-04-29 02:48 183K
20260429T00Z_MSC_RDPS_TotalCloudCover_Sfc_RLatLon0.09_PT029H.grib2 2026-04-29 02:48 644K
20260429T00Z_MSC_RDPS_TotalTotalsIndex_Sfc_RLatLon0.09_PT029H.grib2 2026-04-29 02:48 2.4M
20260429T00Z_MSC_RDPS_UVIndex-ClearSky_Sfc_RLatLon0.09_PT029H.grib2 2026-04-29 02:48 99K
20260429T00Z_MSC_RDPS_UVIndex_Sfc_RLatLon0.09_PT029H.grib2 2026-04-29 02:48 169K
20260429T00Z_MSC_RDPS_UpwardLongwaveRadiationFlux_NTAtm_RLatLon0.09_PT029H.grib2 2026-04-29 02:48 489K
20260429T00Z_MSC_RDPS_UpwardShortwaveRadiationFlux_NTAtm_RLatLon0.09_PT029H.grib2 2026-04-29 02:48 142K
20260429T00Z_MSC_RDPS_VerticalVelocity_IsbL-0250_RLatLon0.09_PT029H.grib2 2026-04-29 02:48 562K
20260429T00Z_MSC_RDPS_VerticalVelocity_IsbL-0500_RLatLon0.09_PT029H.grib2 2026-04-29 02:48 544K
20260429T00Z_MSC_RDPS_VerticalVelocity_IsbL-0700_RLatLon0.09_PT029H.grib2 2026-04-29 02:48 589K
20260429T00Z_MSC_RDPS_VerticalVelocity_IsbL-0850_RLatLon0.09_PT029H.grib2 2026-04-29 02:48 679K
20260429T00Z_MSC_RDPS_VerticalWindShear_EtaL-6500_RLatLon0.09_PT029H.grib2 2026-04-29 02:48 1.2M
20260429T00Z_MSC_RDPS_WindChill_Sfc_RLatLon0.09_PT029H.grib2 2026-04-29 02:48 1.1M
20260429T00Z_MSC_RDPS_WindDir_AGL-10m_RLatLon0.09_PT029H.grib2 2026-04-29 02:48 965K
20260429T00Z_MSC_RDPS_WindDir_AGL-120m_RLatLon0.09_PT029H.grib2 2026-04-29 02:48 603K
20260429T00Z_MSC_RDPS_WindDir_AGL-40m_RLatLon0.09_PT029H.grib2 2026-04-29 02:48 635K
20260429T00Z_MSC_RDPS_WindDir_AGL-80m_RLatLon0.09_PT029H.grib2 2026-04-29 02:48 615K
20260429T00Z_MSC_RDPS_WindDir_IsbL-0001_RLatLon0.09_PT029H.grib2 2026-04-29 02:48 313K
20260429T00Z_MSC_RDPS_WindDir_IsbL-0005_RLatLon0.09_PT029H.grib2 2026-04-29 02:48 358K
20260429T00Z_MSC_RDPS_WindDir_IsbL-0010_RLatLon0.09_PT029H.grib2 2026-04-29 02:48 398K
20260429T00Z_MSC_RDPS_WindDir_IsbL-0020_RLatLon0.09_PT029H.grib2 2026-04-29 02:48 414K
20260429T00Z_MSC_RDPS_WindDir_IsbL-0030_RLatLon0.09_PT029H.grib2 2026-04-29 02:48 426K
20260429T00Z_MSC_RDPS_WindDir_IsbL-0050_RLatLon0.09_PT029H.grib2 2026-04-29 02:48 433K
20260429T00Z_MSC_RDPS_WindDir_IsbL-0100_RLatLon0.09_PT029H.grib2 2026-04-29 02:48 442K
20260429T00Z_MSC_RDPS_WindDir_IsbL-0150_RLatLon0.09_PT029H.grib2 2026-04-29 02:48 436K
20260429T00Z_MSC_RDPS_WindDir_IsbL-0175_RLatLon0.09_PT029H.grib2 2026-04-29 02:48 451K
20260429T00Z_MSC_RDPS_WindDir_IsbL-0200_RLatLon0.09_PT029H.grib2 2026-04-29 02:48 461K
20260429T00Z_MSC_RDPS_WindDir_IsbL-0225_RLatLon0.09_PT029H.grib2 2026-04-29 02:48 468K
20260429T00Z_MSC_RDPS_WindDir_IsbL-0250_RLatLon0.09_PT029H.grib2 2026-04-29 02:48 474K
20260429T00Z_MSC_RDPS_WindDir_IsbL-0275_RLatLon0.09_PT029H.grib2 2026-04-29 02:48 491K
20260429T00Z_MSC_RDPS_WindDir_IsbL-0300_RLatLon0.09_PT029H.grib2 2026-04-29 02:48 487K
20260429T00Z_MSC_RDPS_WindDir_IsbL-0350_RLatLon0.09_PT029H.grib2 2026-04-29 02:48 505K
20260429T00Z_MSC_RDPS_WindDir_IsbL-0400_RLatLon0.09_PT029H.grib2 2026-04-29 02:48 518K
20260429T00Z_MSC_RDPS_WindDir_IsbL-0450_RLatLon0.09_PT029H.grib2 2026-04-29 02:48 533K
20260429T00Z_MSC_RDPS_WindDir_IsbL-0500_RLatLon0.09_PT029H.grib2 2026-04-29 02:48 550K
20260429T00Z_MSC_RDPS_WindDir_IsbL-0550_RLatLon0.09_PT029H.grib2 2026-04-29 02:48 569K
20260429T00Z_MSC_RDPS_WindDir_IsbL-0600_RLatLon0.09_PT029H.grib2 2026-04-29 02:48 600K
20260429T00Z_MSC_RDPS_WindDir_IsbL-0650_RLatLon0.09_PT029H.grib2 2026-04-29 02:48 643K
20260429T00Z_MSC_RDPS_WindDir_IsbL-0700_RLatLon0.09_PT029H.grib2 2026-04-29 02:48 685K
20260429T00Z_MSC_RDPS_WindDir_IsbL-0750_RLatLon0.09_PT029H.grib2 2026-04-29 02:48 732K
20260429T00Z_MSC_RDPS_WindDir_IsbL-0800_RLatLon0.09_PT029H.grib2 2026-04-29 02:48 793K
20260429T00Z_MSC_RDPS_WindDir_IsbL-0850_RLatLon0.09_PT029H.grib2 2026-04-29 02:48 861K
20260429T00Z_MSC_RDPS_WindDir_IsbL-0875_RLatLon0.09_PT029H.grib2 2026-04-29 02:48 888K
20260429T00Z_MSC_RDPS_WindDir_IsbL-0900_RLatLon0.09_PT029H.grib2 2026-04-29 02:48 903K
20260429T00Z_MSC_RDPS_WindDir_IsbL-0925_RLatLon0.09_PT029H.grib2 2026-04-29 02:48 914K
20260429T00Z_MSC_RDPS_WindDir_IsbL-0950_RLatLon0.09_PT029H.grib2 2026-04-29 02:48 915K
20260429T00Z_MSC_RDPS_WindDir_IsbL-0970_RLatLon0.09_PT029H.grib2 2026-04-29 02:48 924K
20260429T00Z_MSC_RDPS_WindDir_IsbL-0985_RLatLon0.09_PT029H.grib2 2026-04-29 02:48 930K
20260429T00Z_MSC_RDPS_WindDir_IsbL-1000_RLatLon0.09_PT029H.grib2 2026-04-29 02:48 943K
20260429T00Z_MSC_RDPS_WindDir_IsbL-1015_RLatLon0.09_PT029H.grib2 2026-04-29 02:48 959K
20260429T00Z_MSC_RDPS_WindGust-Max_AGL-10m_RLatLon0.09_PT029H.grib2 2026-04-29 02:48 1.0M
20260429T00Z_MSC_RDPS_WindGust-Min_AGL-10m_RLatLon0.09_PT029H.grib2 2026-04-29 02:48 957K
20260429T00Z_MSC_RDPS_WindGust_AGL-10m_RLatLon0.09_PT029H.grib2 2026-04-29 02:48 1.0M
20260429T00Z_MSC_RDPS_WindSpeed_AGL-10m_RLatLon0.09_PT029H.grib2 2026-04-29 02:48 827K
20260429T00Z_MSC_RDPS_WindSpeed_AGL-120m_RLatLon0.09_PT029H.grib2 2026-04-29 02:48 532K
20260429T00Z_MSC_RDPS_WindSpeed_AGL-40m_RLatLon0.09_PT029H.grib2 2026-04-29 02:48 533K
20260429T00Z_MSC_RDPS_WindSpeed_AGL-80m_RLatLon0.09_PT029H.grib2 2026-04-29 02:48 533K
20260429T00Z_MSC_RDPS_WindSpeed_IsbL-0001_RLatLon0.09_PT029H.grib2 2026-04-29 02:48 252K
20260429T00Z_MSC_RDPS_WindSpeed_IsbL-0005_RLatLon0.09_PT029H.grib2 2026-04-29 02:48 390K
20260429T00Z_MSC_RDPS_WindSpeed_IsbL-0010_RLatLon0.09_PT029H.grib2 2026-04-29 02:48 405K
20260429T00Z_MSC_RDPS_WindSpeed_IsbL-0020_RLatLon0.09_PT029H.grib2 2026-04-29 02:48 326K
20260429T00Z_MSC_RDPS_WindSpeed_IsbL-0030_RLatLon0.09_PT029H.grib2 2026-04-29 02:48 325K
20260429T00Z_MSC_RDPS_WindSpeed_IsbL-0050_RLatLon0.09_PT029H.grib2 2026-04-29 02:48 353K
20260429T00Z_MSC_RDPS_WindSpeed_IsbL-0100_RLatLon0.09_PT029H.grib2 2026-04-29 02:48 449K
20260429T00Z_MSC_RDPS_WindSpeed_IsbL-0150_RLatLon0.09_PT029H.grib2 2026-04-29 02:48 390K
20260429T00Z_MSC_RDPS_WindSpeed_IsbL-0175_RLatLon0.09_PT029H.grib2 2026-04-29 02:48 439K
20260429T00Z_MSC_RDPS_WindSpeed_IsbL-0200_RLatLon0.09_PT029H.grib2 2026-04-29 02:48 455K
20260429T00Z_MSC_RDPS_WindSpeed_IsbL-0225_RLatLon0.09_PT029H.grib2 2026-04-29 02:48 460K
20260429T00Z_MSC_RDPS_WindSpeed_IsbL-0250_RLatLon0.09_PT029H.grib2 2026-04-29 02:48 464K
20260429T00Z_MSC_RDPS_WindSpeed_IsbL-0275_RLatLon0.09_PT029H.grib2 2026-04-29 02:48 482K
20260429T00Z_MSC_RDPS_WindSpeed_IsbL-0300_RLatLon0.09_PT029H.grib2 2026-04-29 02:48 478K
20260429T00Z_MSC_RDPS_WindSpeed_IsbL-0350_RLatLon0.09_PT029H.grib2 2026-04-29 02:48 487K
20260429T00Z_MSC_RDPS_WindSpeed_IsbL-0400_RLatLon0.09_PT029H.grib2 2026-04-29 02:48 487K
20260429T00Z_MSC_RDPS_WindSpeed_IsbL-0450_RLatLon0.09_PT029H.grib2 2026-04-29 02:48 471K
20260429T00Z_MSC_RDPS_WindSpeed_IsbL-0500_RLatLon0.09_PT029H.grib2 2026-04-29 02:48 591K
20260429T00Z_MSC_RDPS_WindSpeed_IsbL-0550_RLatLon0.09_PT029H.grib2 2026-04-29 02:48 590K
20260429T00Z_MSC_RDPS_WindSpeed_IsbL-0600_RLatLon0.09_PT029H.grib2 2026-04-29 02:48 597K
20260429T00Z_MSC_RDPS_WindSpeed_IsbL-0650_RLatLon0.09_PT029H.grib2 2026-04-29 02:48 617K
20260429T00Z_MSC_RDPS_WindSpeed_IsbL-0700_RLatLon0.09_PT029H.grib2 2026-04-29 02:48 642K
20260429T00Z_MSC_RDPS_WindSpeed_IsbL-0750_RLatLon0.09_PT029H.grib2 2026-04-29 02:48 713K
20260429T00Z_MSC_RDPS_WindSpeed_IsbL-0800_RLatLon0.09_PT029H.grib2 2026-04-29 02:48 754K
20260429T00Z_MSC_RDPS_WindSpeed_IsbL-0850_RLatLon0.09_PT029H.grib2 2026-04-29 02:48 806K
20260429T00Z_MSC_RDPS_WindSpeed_IsbL-0875_RLatLon0.09_PT029H.grib2 2026-04-29 02:48 825K
20260429T00Z_MSC_RDPS_WindSpeed_IsbL-0900_RLatLon0.09_PT029H.grib2 2026-04-29 02:48 841K
20260429T00Z_MSC_RDPS_WindSpeed_IsbL-0925_RLatLon0.09_PT029H.grib2 2026-04-29 02:48 853K
20260429T00Z_MSC_RDPS_WindSpeed_IsbL-0950_RLatLon0.09_PT029H.grib2 2026-04-29 02:48 852K
20260429T00Z_MSC_RDPS_WindSpeed_IsbL-0970_RLatLon0.09_PT029H.grib2 2026-04-29 02:48 855K
20260429T00Z_MSC_RDPS_WindSpeed_IsbL-0985_RLatLon0.09_PT029H.grib2 2026-04-29 02:48 844K
20260429T00Z_MSC_RDPS_WindSpeed_IsbL-1000_RLatLon0.09_PT029H.grib2 2026-04-29 02:48 838K
20260429T00Z_MSC_RDPS_WindSpeed_IsbL-1015_RLatLon0.09_PT029H.grib2 2026-04-29 02:48 828K
20260429T00Z_MSC_RDPS_WindU_AGL-10m_RLatLon0.09_PT029H.grib2 2026-04-29 02:48 425K
20260429T00Z_MSC_RDPS_WindU_AGL-120m_RLatLon0.09_PT029H.grib2 2026-04-29 02:48 413K
20260429T00Z_MSC_RDPS_WindU_AGL-40m_RLatLon0.09_PT029H.grib2 2026-04-29 02:48 531K
20260429T00Z_MSC_RDPS_WindU_AGL-80m_RLatLon0.09_PT029H.grib2 2026-04-29 02:48 530K
20260429T00Z_MSC_RDPS_WindU_IsbL-0001_RLatLon0.09_PT029H.grib2 2026-04-29 02:48 292K
20260429T00Z_MSC_RDPS_WindU_IsbL-0005_RLatLon0.09_PT029H.grib2 2026-04-29 02:48 291K
20260429T00Z_MSC_RDPS_WindU_IsbL-0010_RLatLon0.09_PT029H.grib2 2026-04-29 02:48 301K
20260429T00Z_MSC_RDPS_WindU_IsbL-0020_RLatLon0.09_PT029H.grib2 2026-04-29 02:48 354K
20260429T00Z_MSC_RDPS_WindU_IsbL-0030_RLatLon0.09_PT029H.grib2 2026-04-29 02:48 316K
20260429T00Z_MSC_RDPS_WindU_IsbL-0050_RLatLon0.09_PT029H.grib2 2026-04-29 02:48 344K
20260429T00Z_MSC_RDPS_WindU_IsbL-0100_RLatLon0.09_PT029H.grib2 2026-04-29 02:48 343K
20260429T00Z_MSC_RDPS_WindU_IsbL-0150_RLatLon0.09_PT029H.grib2 2026-04-29 02:48 404K
20260429T00Z_MSC_RDPS_WindU_IsbL-0175_RLatLon0.09_PT029H.grib2 2026-04-29 02:48 430K
20260429T00Z_MSC_RDPS_WindU_IsbL-0200_RLatLon0.09_PT029H.grib2 2026-04-29 02:48 445K
20260429T00Z_MSC_RDPS_WindU_IsbL-0225_RLatLon0.09_PT029H.grib2 2026-04-29 02:48 351K
20260429T00Z_MSC_RDPS_WindU_IsbL-0250_RLatLon0.09_PT029H.grib2 2026-04-29 02:48 353K
20260429T00Z_MSC_RDPS_WindU_IsbL-0275_RLatLon0.09_PT029H.grib2 2026-04-29 02:48 368K
20260429T00Z_MSC_RDPS_WindU_IsbL-0300_RLatLon0.09_PT029H.grib2 2026-04-29 02:48 362K
20260429T00Z_MSC_RDPS_WindU_IsbL-0350_RLatLon0.09_PT029H.grib2 2026-04-29 02:48 474K
20260429T00Z_MSC_RDPS_WindU_IsbL-0400_RLatLon0.09_PT029H.grib2 2026-04-29 02:48 475K
20260429T00Z_MSC_RDPS_WindU_IsbL-0450_RLatLon0.09_PT029H.grib2 2026-04-29 02:48 475K
20260429T00Z_MSC_RDPS_WindU_IsbL-0500_RLatLon0.09_PT029H.grib2 2026-04-29 02:48 478K
20260429T00Z_MSC_RDPS_WindU_IsbL-0550_RLatLon0.09_PT029H.grib2 2026-04-29 02:48 460K
20260429T00Z_MSC_RDPS_WindU_IsbL-0600_RLatLon0.09_PT029H.grib2 2026-04-29 02:48 467K
20260429T00Z_MSC_RDPS_WindU_IsbL-0650_RLatLon0.09_PT029H.grib2 2026-04-29 02:48 487K
20260429T00Z_MSC_RDPS_WindU_IsbL-0700_RLatLon0.09_PT029H.grib2 2026-04-29 02:48 508K
20260429T00Z_MSC_RDPS_WindU_IsbL-0750_RLatLon0.09_PT029H.grib2 2026-04-29 02:48 533K
20260429T00Z_MSC_RDPS_WindU_IsbL-0800_RLatLon0.09_PT029H.grib2 2026-04-29 02:48 570K
20260429T00Z_MSC_RDPS_WindU_IsbL-0850_RLatLon0.09_PT029H.grib2 2026-04-29 02:48 615K
20260429T00Z_MSC_RDPS_WindU_IsbL-0875_RLatLon0.09_PT029H.grib2 2026-04-29 02:48 631K
20260429T00Z_MSC_RDPS_WindU_IsbL-0900_RLatLon0.09_PT029H.grib2 2026-04-29 02:48 643K
20260429T00Z_MSC_RDPS_WindU_IsbL-0925_RLatLon0.09_PT029H.grib2 2026-04-29 02:48 651K
20260429T00Z_MSC_RDPS_WindU_IsbL-0950_RLatLon0.09_PT029H.grib2 2026-04-29 02:48 648K
20260429T00Z_MSC_RDPS_WindU_IsbL-0970_RLatLon0.09_PT029H.grib2 2026-04-29 02:48 648K
20260429T00Z_MSC_RDPS_WindU_IsbL-0985_RLatLon0.09_PT029H.grib2 2026-04-29 02:48 781K
20260429T00Z_MSC_RDPS_WindU_IsbL-1000_RLatLon0.09_PT029H.grib2 2026-04-29 02:48 775K
20260429T00Z_MSC_RDPS_WindU_IsbL-1015_RLatLon0.09_PT029H.grib2 2026-04-29 02:48 767K
20260429T00Z_MSC_RDPS_WindV_AGL-10m_RLatLon0.09_PT029H.grib2 2026-04-29 02:48 426K
20260429T00Z_MSC_RDPS_WindV_AGL-120m_RLatLon0.09_PT029H.grib2 2026-04-29 02:48 528K
20260429T00Z_MSC_RDPS_WindV_AGL-40m_RLatLon0.09_PT029H.grib2 2026-04-29 02:48 530K
20260429T00Z_MSC_RDPS_WindV_AGL-80m_RLatLon0.09_PT029H.grib2 2026-04-29 02:48 529K
20260429T00Z_MSC_RDPS_WindV_IsbL-0001_RLatLon0.09_PT029H.grib2 2026-04-29 02:48 294K
20260429T00Z_MSC_RDPS_WindV_IsbL-0005_RLatLon0.09_PT029H.grib2 2026-04-29 02:48 291K
20260429T00Z_MSC_RDPS_WindV_IsbL-0010_RLatLon0.09_PT029H.grib2 2026-04-29 02:48 303K
20260429T00Z_MSC_RDPS_WindV_IsbL-0020_RLatLon0.09_PT029H.grib2 2026-04-29 02:48 319K
20260429T00Z_MSC_RDPS_WindV_IsbL-0030_RLatLon0.09_PT029H.grib2 2026-04-29 02:48 358K
20260429T00Z_MSC_RDPS_WindV_IsbL-0050_RLatLon0.09_PT029H.grib2 2026-04-29 02:48 346K
20260429T00Z_MSC_RDPS_WindV_IsbL-0100_RLatLon0.09_PT029H.grib2 2026-04-29 02:48 339K
20260429T00Z_MSC_RDPS_WindV_IsbL-0150_RLatLon0.09_PT029H.grib2 2026-04-29 02:48 403K
20260429T00Z_MSC_RDPS_WindV_IsbL-0175_RLatLon0.09_PT029H.grib2 2026-04-29 02:48 428K
20260429T00Z_MSC_RDPS_WindV_IsbL-0200_RLatLon0.09_PT029H.grib2 2026-04-29 02:48 344K
20260429T00Z_MSC_RDPS_WindV_IsbL-0225_RLatLon0.09_PT029H.grib2 2026-04-29 02:48 349K
20260429T00Z_MSC_RDPS_WindV_IsbL-0250_RLatLon0.09_PT029H.grib2 2026-04-29 02:48 375K
20260429T00Z_MSC_RDPS_WindV_IsbL-0275_RLatLon0.09_PT029H.grib2 2026-04-29 02:48 389K
20260429T00Z_MSC_RDPS_WindV_IsbL-0300_RLatLon0.09_PT029H.grib2 2026-04-29 02:48 384K
20260429T00Z_MSC_RDPS_WindV_IsbL-0350_RLatLon0.09_PT029H.grib2 2026-04-29 02:48 369K
20260429T00Z_MSC_RDPS_WindV_IsbL-0400_RLatLon0.09_PT029H.grib2 2026-04-29 02:48 369K
20260429T00Z_MSC_RDPS_WindV_IsbL-0450_RLatLon0.09_PT029H.grib2 2026-04-29 02:48 475K
20260429T00Z_MSC_RDPS_WindV_IsbL-0500_RLatLon0.09_PT029H.grib2 2026-04-29 02:48 475K
20260429T00Z_MSC_RDPS_WindV_IsbL-0550_RLatLon0.09_PT029H.grib2 2026-04-29 02:48 474K
20260429T00Z_MSC_RDPS_WindV_IsbL-0600_RLatLon0.09_PT029H.grib2 2026-04-29 02:48 482K
20260429T00Z_MSC_RDPS_WindV_IsbL-0650_RLatLon0.09_PT029H.grib2 2026-04-29 02:48 483K
20260429T00Z_MSC_RDPS_WindV_IsbL-0700_RLatLon0.09_PT029H.grib2 2026-04-29 02:48 505K
20260429T00Z_MSC_RDPS_WindV_IsbL-0750_RLatLon0.09_PT029H.grib2 2026-04-29 02:48 529K
20260429T00Z_MSC_RDPS_WindV_IsbL-0800_RLatLon0.09_PT029H.grib2 2026-04-29 02:48 564K
20260429T00Z_MSC_RDPS_WindV_IsbL-0850_RLatLon0.09_PT029H.grib2 2026-04-29 02:48 744K
20260429T00Z_MSC_RDPS_WindV_IsbL-0875_RLatLon0.09_PT029H.grib2 2026-04-29 02:48 764K
20260429T00Z_MSC_RDPS_WindV_IsbL-0900_RLatLon0.09_PT029H.grib2 2026-04-29 02:48 779K
20260429T00Z_MSC_RDPS_WindV_IsbL-0925_RLatLon0.09_PT029H.grib2 2026-04-29 02:48 790K
20260429T00Z_MSC_RDPS_WindV_IsbL-0950_RLatLon0.09_PT029H.grib2 2026-04-29 02:48 786K
20260429T00Z_MSC_RDPS_WindV_IsbL-0970_RLatLon0.09_PT029H.grib2 2026-04-29 02:48 788K
20260429T00Z_MSC_RDPS_WindV_IsbL-0985_RLatLon0.09_PT029H.grib2 2026-04-29 02:48 828K
20260429T00Z_MSC_RDPS_WindV_IsbL-1000_RLatLon0.09_PT029H.grib2 2026-04-29 02:48 821K
20260429T00Z_MSC_RDPS_WindV_IsbL-1015_RLatLon0.09_PT029H.grib2 2026-04-29 02:48 813K